Regional Weather Roundup
Issued by NWS Sterling, VA

Home | Current Version | Previous Version | Graphics & Text | Print | Product List | Glossary On
Versions: 1 2 3 4 5 6 7 8 9 10 11 12 13 14 15 16 17 18 19 20 21 22 23 24 25 26 27 28 29 30 31 32 33 34 35 36 37 38 39 40 41 42 43 44 45 46 47 48 49 50
000
ASUS41 KLWX 231310
RWRLWX

REGIONAL WEATHER ROUNDUP
NATIONAL WEATHER SERVICE BALTIMORE MD/WASHINGTON DC
900 AM EDT WED JUL 23 2014

Note: "FAIR" indicates few or no clouds below 12,000 feet
with no significant weather and/or obstructions to visibility.
 TC=TEMPERATURE CELSIUS

 * =Non NWS site. Station does not report precipitation (e.g. rain,
    snow, etc.), thunder, or fog.

DCZ001-MDZ009-015-VAZ040>042-051-053>054-231400-
WASHINGTON METRO
  /KDAA//-FT BELVOIR

CITY           SKY/WX    TMP DP  RH WIND       PRES   REMARKS
WASHINGTON NAT MOSUNNY   82  69  64 SW6       30.01F
DULLES         MOSUNNY   76  70  82 CALM      30.01F
ANDREWS AFB    MOSUNNY   79  72  79 W8        30.02S
QUANTICO       MOSUNNY   78  71  79 S6        30.01F
COLLEGE PARK*  PTSUNNY   79  72  78 CALM      30.00S
LEESBURG*      SUNNY     79  73  83 CALM      30.02F
GAITHERSBURG*  SUNNY     79  72  78 W3        30.05F

$$

MDZ006>007-011-014-231400-
BALTIMORE METRO

CITY           SKY/WX    TMP DP  RH WIND       PRES   REMARKS
BWI AIRPORT    MOSUNNY   80  71  74 SW7       29.99F
MD SCIENCE CTR   N/A     81  70  69 MISG      29.99F
MARTIN STATE   MOSUNNY   81  73  78 SW8       30.01S
ANNAPOLIS      MOSUNNY   81  71  71 VRB3      30.00S
FORT MEADE*    SUNNY     75  70  83 SW5       30.03S

$$

MDZ012-015-019>023-231400-
MARYLAND EASTERN SHORE

CITY           SKY/WX    TMP DP  RH WIND       PRES   REMARKS
OCEAN CITY     SUNNY     80  73  79 SW5       30.03S
SALISBURY      NOT AVBL
BAY BRIDGE AP*   N/A     79  72  78 S6        30.01S
CAMBRIDGE*       N/A     79  72  78 SW6         N/A
EASTON*        MOSUNNY   81  81 100 SW7       30.05S HX  91

$$

MDZ017>025-231400-
SOUTHERN MARYLAND

CITY           SKY/WX    TMP DP  RH WIND       PRES   REMARKS
PATUXENT RIVER MOSUNNY   79  72  79 W7        30.02S
ST INIGOES     SUNNY     79  71  76 SW5       30.02
LEONARDTOWN*   SUNNY     79  70  73 SW6       30.04S

$$

MDZ003>005-231400-
NORTH CENTRAL MARYLAND

CITY           SKY/WX    TMP DP  RH WIND       PRES   REMARKS
FREDERICK*     SUNNY     79  75  89 S3        30.03F
HAGERSTOWN APT SUNNY     78  70  76 S6        30.00F
WESTMINSTER*   SUNNY     75  72  88 SW6       30.01F

$$

MDZ501>502-231400-
WESTERN MARYLAND

CITY           SKY/WX    TMP DP  RH WIND       PRES   REMARKS
OAKLAND*       MOSUNNY   72 N/A N/A W8        30.12F
CUMBERLAND*    CLOUDY    75  72  88 CALM      30.05F

$$

VAZ025>031-231400-
SHENANDOAH VALLEY

CITY           SKY/WX    TMP DP  RH WIND       PRES   REMARKS
WINCHESTER*    SUNNY     81  70  69 SW7       30.02S
STAUNTON*      CLOUDY    76  69  80 SW5       30.09S

$$

WVZ021-048>050-054>055-231400-
EASTERN WEST VIRGINIA PANHANDLE

CITY           SKY/WX    TMP DP  RH WIND       PRES   REMARKS
MARTINSBURG    SUNNY     79  69  71 S3        30.01F
PETERSBURG*    SUNNY     75  66  74 CALM      30.03F

$$

VAZ036>039-050-231400-
CENTRAL FOOTHILLS

CITY           SKY/WX    TMP DP  RH WIND       PRES   REMARKS
CHARLOTTESVILL PTSUNNY   78  72  81 S5        30.04S
ORANGE*        MOSUNNY   79  72  78 S3        30.04S

$$

VAZ055>057-231400-
NORTH AND CENTRAL PIEDMONT

CITY           SKY/WX    TMP DP  RH WIND       PRES   REMARKS
FREDERICKSBRG* SUNNY     80  72  76 SW3       30.01S
STAFFORD*      MOSUNNY   78  76  96 W3        30.05F

$$

NCZ024-NYZ072-PAZ021-071-VAZ022-071-231400-
OTHER REGIONAL OBSERVATIONS

CITY           SKY/WX    TMP DP  RH WIND       PRES   REMARKS
NEW YORK CITY  MOSUNNY   77  67  71 VRB6      30.01F
PHILADELPHIA   MOSUNNY   78  69  73 SW8       30.00F
PITTSBURGH     CLOUDY    75  71  87 S6        29.99F
ROANOKE        MOSUNNY   76  68  76 W6        30.11S
RICHMOND       MOSUNNY   78  71  79 SW7       30.04S
RALEIGH        PTSUNNY   77  73  87 SW5       30.08S

$$

ANZ530>537-231400-
MARINE OBSERVATIONS

STATION/POSITION TIME  TEMP    WIND        PRES
                       AIR SEA DIR/SP/G
                 (UTC) (F)     (DEG/KT/KT) (MB)
THOMAS PT LIGHT  1300   77 79  190/  8/  9 1016.6F
BALT KEY BRIDGE  1300   77     240/  5/  6 1015.7S
COVE POINT       1300   76     180/  6/  7 1016.4F
LEWISETTA        1300   77 81  260/  6/  7 1016.6S
SOLOMONS ISLAND  1300      81                N/A
PINEY POINT      1300          230/  3/  4   N/A

$$



USA.gov is the U.S. government's official web portal to all federal, state and local government web resources and services.